Regional Weather Roundup
Issued by NWS

Home | Current Version | Previous Version | Text Only | Print | Product List | Glossary On
Versions: 1 2 3 4 5 6 7 8 9 10 11 12 13 14 15 16 17 18 19 20 21 22 23 24 25 26 27 28 29 30 31 32 33 34 35 36 37 38 39 40 41 42 43 44 45 46 47 48 49 50
000
ASUS43 KMKX 222221
RWRWI

WISCONSIN REGIONAL WEATHER ROUNDUP
NATIONAL WEATHER SERVICE MILWAUKEE/SULLIVAN WI
400 PM CST MON DEC 22 2014

NOTE: "FAIR" INDICATES FEW OR NO CLOUDS BELOW 12,000 FEET WITH NO
SIGNIFICANT WEATHER AND/OR OBSTRUCTIONS TO VISIBILITY.

WIZ001-002-006>008-014>016-023>028-222300-
NORTHWEST WISCONSIN

CITY           SKY/WX    TMP DP  RH WIND       PRES   REMARKS
SUPERIOR ARPT  CLOUDY    35  34  96 E6        29.70S FOG     WCI  30
ASHLAND        CLOUDY    36  32  85 VRB5      29.74R WCI  32
HAYWARD        CLOUDY    36  32  85 SE7       29.69R FOG     WCI  30
SIREN          CLOUDY    36  34  92 E6        29.66S FOG     WCI  31
CUMBERLAND     CLOUDY    34  32  93 E7        29.65S FOG     WCI  28
RICE LAKE      CLOUDY    36  32  87 E10G16    29.67F FOG     WCI  28
CHETEK         CLOUDY    36  33  90 E9        29.66F FOG     WCI  29
LADYSMITH      CLOUDY    36  32  87 E9        29.70F FOG     WCI  29
EAU CLAIRE     CLOUDY    38  33  82 E9        29.65F WCI  31
MENOMONIE      CLOUDY    38  34  87 E10G17    29.65S FOG     WCI  31
NEW RICHMOND   CLOUDY    37  35  95 E8        29.63S FOG     WCI  30
OSCEOLA        LGT RAIN  37  37 100 E9        29.65F WCI  30
$$

WIZ003>005-009-010-017-018-222300-
NORTH CENTRAL WISCONSIN

CITY           SKY/WX    TMP DP  RH WIND       PRES   REMARKS
MANITOWISH WTR CLOUDY    33  33 100 SE7       29.73S FOG     WCI  26
ARBOR VITAE    CLOUDY    34  33  94 SE10G16   29.73F FOG     WCI  26
WOODRUFF       CLOUDY    34  33  94 SE10G16   29.73F FOG     WCI  26
RHINELANDER    CLOUDY    32  31  96 E10       29.74F FOG     WCI  24
EAGLE RIVER    CLOUDY    33  33  99 SE6       29.75S FOG     WCI  27
LAND O LAKES   CLOUDY    33  33  98 SE7       29.77S FOG     WCI  27
PHILLIPS       CLOUDY    33  32  95 E6        29.70F FOG     WCI  28
TOMAHAWK       CLOUDY    32  31  96 CALM      29.73F FOG
MEDFORD        CLOUDY    33  31  92 E7        29.70S FOG     WCI  27
MERRILL        CLOUDY    34  32  94 SE6       29.73S FOG     WCI  29
$$

WIZ029-030-035-036-043>047-222300-
CENTRAL WISCONSIN

CITY           SKY/WX    TMP DP  RH WIND       PRES   REMARKS
WAUSAU         CLOUDY    34  31  88 E13G20    29.71S FOG     WCI  25
MOSINEE        CLOUDY    34  34 100 E6        29.72F FOG     WCI  29
MARSHFIELD     CLOUDY    35  30  82 E10       29.69F HAZE    WCI  27
STEVENS POINT  CLOUDY    33  30  88 E13G18    29.73S FOG     WCI  24
WAUPACA        CLOUDY    38  32  80 E9        29.76S HAZE    WCI  31
WAUTOMA        MIX PCPN  36  36 100 E6        29.73S FOG     WCI  31
WISC RAPIDS    CLOUDY    37  30  75 E10       29.71F WCI  30
CAMP DOUGLAS   LGT RAIN  36  36 100 E10       29.67F WCI  28
$$

WIZ011>013-019>022-031-037>040-048>050-222300-
NORTHEAST WISCONSIN

CITY           SKY/WX    TMP DP  RH WIND       PRES   REMARKS
ANTIGO         CLOUDY    32  31  96 SE13      29.75S FOG     WCI  22
SHAWANO        CLOUDY    37  32  84 E8        29.79F HAZE    WCI  30
OCONTO         CLOUDY    34  32  92 E3        29.82F
STURGEON BAY   CLOUDY    36  28  75 SE10      29.84S WCI  28
GREEN BAY      CLOUDY    36  32  85 E8        29.79F FOG     WCI  30
MANITOWOC      LGT RAIN  36  34  93 SE15      29.80F WCI  26
APPLETON       CLOUDY    36  30  80 E9        29.77S FOG     WCI  29
CLINTONVILLE   CLOUDY    36  32  87 E10       29.78S HAZE    WCI  28
OSHKOSH        LGT SNOW  34  31  88 E9        29.74F FOG     WCI  27
$$

WIZ032>034-041-042-053>061-222300-
SOUTHWEST WISCONSIN

CITY           SKY/WX    TMP DP  RH WIND       PRES   REMARKS
LA CROSSE      LGT RAIN  39  34  82 SE9       29.63F WCI  33
SPARTA         DRIZZLE   37  33  87 E10       29.66F WCI  29
VIROQUA        CLOUDY    33  33 100 E14       29.61F WCI  24
BOSCOBEL       LGT RAIN  36  33  89 E8        29.62F FOG     WCI  30
PRAIRIE DU CHI LGT RAIN  36  33  90 E8        29.60S WCI  30
PLATTEVILLE    CLOUDY    35  34  96 E13       29.61R WCI  26
$$

WIZ056-057-062-063-064-067-068-222300-
SOUTH CENTRAL WISCONSIN

CITY           SKY/WX    TMP DP  RH WIND       PRES   REMARKS
REEDSBURG      DRIZZLE   33  33  97 E7        29.66F WCI  27
BARABOO/DELLS  LGT SNOW  33  32  96 E10       29.67F WCI  25
LONE ROCK      LGT RAIN  39  33  79 E13       29.64F WCI  31
MINERAL POINT  LGT RAIN  36  34  93 E12G22    29.60S WCI  27
MADISON        LGT RAIN  36  33  89 E14       29.66F FOG     WCI  27
MIDDLETON      CLOUDY    36  36  98 E10       29.65F WCI  29
WATERTOWN      DRIZZLE   34  34 100 E15       29.69F WCI  24
MONROE         DRIZZLE   34  34 100 E9G18     29.62S WCI  26
JANESVILLE     DRIZZLE   37  36  93 E12G17    29.64F FOG     WCI  30
$$

WIZ051-052-058>065-066-070>072-222300-
SOUTHEAST WISCONSIN

CITY           SKY/WX    TMP DP  RH WIND       PRES   REMARKS
MILWAUKEE      LGT RAIN  36  33  89 SE15      29.75F FOG     WCI  27
WAUKESHA       LGT RAIN  34  32  93 E14       29.73F VSB 1   WCI  24
MILWAUKEE/TIMM LGT RAIN  36  32  87 E9        29.75F FOG     WCI  29
RACINE         LGT RAIN  37  34  89 SE13      29.75F FOG     WCI  29
BURLINGTON     MIX PCPN  33  33  99 E13G20    29.70F WCI  24
KENOSHA        LGT RAIN  36  35  96 E15       29.72F FOG     WCI  27
FOND DU LAC    LGT SNOW  35  31  85 E9        29.74F FOG     WCI  28
SHEBOYGAN      LGT RAIN  35  33  92 SE9       29.78F FOG     WCI  28
WEST BEND      LGT SNOW  32  32 100 E8        29.75S WCI  25
JUNEAU         RAIN      34  32  94 E13       29.71F WCI  25
$$

LSZ147-162-222300-
LAKE SUPERIOR

STATION/POSITION TIME  TEMP    WIND        PRES    WAVE
                       AIR SEA DIR/SP/G            HT/PER
                 (UTC) (F)     (DEG/KT/KT) (MB)    (FT/S)
DEVILS ISLAND    2200   36     130/  6/  7 1008.2R
PORT WING        2100   38     110/  2/  5 1006.8R
SAXON HARBOR     2100   39      CALM  /  6 1006.8S
$$

LMZ867-665-643>646-222300-
LAKE MICHIGAN

STATION/POSITION TIME  TEMP    WIND        PRES    WAVE
                       AIR SEA DIR/SP/G            HT/PER
                 (UTC) (F)     (DEG/KT/KT) (MB)    (FT/S)
CHAMBERS ISLAND  2100   36     120/  3/  6 1011.5S
NORTHPORT PIER   2100   36     120/ 13/ 15 1011.2F
SISTER BAY       2113          150/ 10/ 13   N/A
ALGOMA LAKESHORE 2115          160/ 19/ 22   N/A
KEWAUNEE LAKESHO 2100   37     140/ 13/ 18 1009.3F
SHEBOYGAN LAKESH 2200   37 38  110/ 21/ 23 1009.1F
PORT WASHINGTON  2100   37     120/ 13/ 16 1009.1
MILWAUKEE LAKESH 2200   37     110/ 18/ 21   N/A
KENOSHA   LAKESH 2200   37     130/ 16/ 20 1007.1F
$$

TC  - TEMPERATURE IN CELSIUS
VSB - VISIBILITY IN STATUTE MILES
WCI - WIND CHILL INDEX
HX  - HEAT INDEX



USA.gov is the U.S. government's official web portal to all federal, state and local government web resources and services.